Station Historical Data
Daily Summary for May 29, 2017 Units:  Metric    English   Both
« Previous Day
Next Day »
Daily Weekly Monthly Yearly Custom
  High: Low: Average:
Temperature: 27.4 °C 19.1 °C 21.9 °C
Dew Point: 20.7 °C 17.2 °C 18.9 °C
Humidity: 93% 63% 84%
Wind Speed: 3.2km/h 0km/h 0km/h
Wind Gust: 8km/h - -
Wind- - WSW
Pressure: 1018.8 hPa 1013.4 hPa -
Precipitation: 20.57 mm    
Historical Graphs
 
 
Tabular Data for May 29, 2017
Time Temperature Dew Point Pressure Wind Wind Speed Wind Gust Humidity Rainfall Rate (Hourly) Conditions
00:00 19.9 °C 17.8 °C 1013.4 hPa Calm     88% 0 mm RA
00:10 19.9 °C 17.7 °C 1013.4 hPa Calm     87% 0 mm SCT
00:20 19.9 °C 17.7 °C 1013.4 hPa Calm     87% 0 mm SCT
00:30 20 °C 17.7 °C 1013.4 hPa Calm     87% 0 mm SCT
00:40 20 °C 17.6 °C 1013.4 hPa Calm     86% 0 mm SCT
00:50 19.9 °C 17.6 °C 1013.4 hPa Calm     86% 0 mm SCT
01:00 19.9 °C 17.6 °C 1013.4 hPa Calm     86% 0 mm SCT
01:10 19.9 °C 17.4 °C 1013.4 hPa Calm     86% 0 mm SCT
01:20 19.7 °C 17.5 °C 1013.4 hPa Calm     87% 0 mm SCT
01:30 19.6 °C 17.3 °C 1013.4 hPa Calm     87% 0 mm SCT
01:40 19.4 °C 17.2 °C 1013.8 hPa Calm     87% 0 mm SCT
01:50 19.4 °C 17.3 °C 1013.8 hPa Calm     88% 0 mm SCT
02:00 19.3 °C 17.3 °C 1014.1 hPa Calm     88% 0 mm SCT
02:10 19.3 °C 17.2 °C 1014.1 hPa Calm     88% 0 mm SCT
02:20 19.3 °C 17.4 °C 1014.1 hPa Calm     89% 0 mm SCT
02:30 19.3 °C 17.4 °C 1014.4 hPa Calm     89% 0 mm SCT
02:50 19.4 °C 17.6 °C 1014.4 hPa Calm     89% 0 mm SCT
03:00 19.6 °C 17.5 °C 1014.4 hPa Calm     88% 0 mm SCT
03:10 19.7 °C 17.7 °C 1014.8 hPa Calm     88% 0 mm SCT
03:20 19.8 °C 17.8 °C 1014.8 hPa Calm     88% 0 mm SCT
03:30 20 °C 17.9 °C 1014.8 hPa Calm     88% 0 mm SCT
03:40 20.2 °C 17.9 °C 1014.8 hPa Calm     87% 0 mm SCT
03:50 19.9 °C 17.7 °C 1014.8 hPa Calm     87% 0 mm SCT
04:00 19.9 °C 17.7 °C 1014.8 hPa Calm     87% 0 mm SCT
04:10 19.9 °C 17.7 °C 1015.1 hPa Calm     87% 0 mm SCT
04:20 19.9 °C 17.7 °C 1015.1 hPa Calm     87% 0 mm SCT
04:30 19.9 °C 17.7 °C 1015.1 hPa Calm     87% 0 mm SCT
04:40 19.9 °C 17.7 °C 1015.1 hPa Calm     87% 0 mm SCT
04:50 19.9 °C 17.7 °C 1015.1 hPa Calm     87% 0 mm SCT
05:00 19.9 °C 17.7 °C 1015.1 hPa Calm     87% 0 mm SCT
05:10 19.9 °C 17.7 °C 1015.1 hPa Calm     87% 0 mm SCT
05:20 19.9 °C 17.7 °C 1015.1 hPa Calm     87% 0 mm SCT
05:30 19.9 °C 17.7 °C 1015.1 hPa Calm     87% 0 mm SCT
05:40 19.9 °C 17.7 °C 1015.5 hPa Calm     87% 0 mm SCT
05:50 19.9 °C 17.7 °C 1015.1 hPa Calm     87% 0 mm SCT
06:00 19.9 °C 17.7 °C 1014.8 hPa Calm     87% 0 mm SCT
06:10 19.9 °C 17.7 °C 1014.8 hPa Calm     87% 0 mm SCT
06:20 19.9 °C 17.7 °C 1014.8 hPa Calm     87% 0 mm SCT
06:30 19.9 °C 17.7 °C 1015.1 hPa Calm     87% 0 mm SCT
06:40 19.9 °C 17.7 °C 1015.1 hPa Calm     87% 0 mm SCT
06:50 19.9 °C 17.7 °C 1014.8 hPa Calm     87% 0 mm SCT
07:00 19.9 °C 17.7 °C 1015.1 hPa Calm     87% 0 mm SCT
07:10 19.9 °C 17.7 °C 1014.8 hPa Calm     87% 0 mm SCT
07:20 19.9 °C 17.7 °C 1015.1 hPa Calm     87% 0 mm SCT
07:30 19.4 °C 17.8 °C 1015.1 hPa Calm     90% 0 mm SCT
07:40 19.7 °C 18.2 °C 1015.5 hPa Calm     91% 0 mm SCT
07:50 20 °C 18.3 °C 1015.5 hPa Calm     90% 0 mm SCT
08:00 20.1 °C 18.4 °C 1015.5 hPa Calm     90% 0 mm SCT
08:10 20.3 °C 18.4 °C 1015.8 hPa Calm     89% 0 mm SCT
08:20 20.4 °C 18.6 °C 1015.8 hPa Calm     89% 0 mm SCT
08:30 20.7 °C 18.6 °C 1015.8 hPa Calm     88% 0 mm SCT
08:40 21 °C 18.9 °C 1015.5 hPa Calm     88% 0 mm SCT
08:50 21.4 °C 18.9 °C 1015.8 hPa Calm   3.2 km/h 86% 0 mm SCT
09:00 21.8 °C 18.6 °C 1015.5 hPa Calm   3.2 km/h 82% 0 mm SCT
09:10 21.9 °C 18.7 °C 1015.8 hPa Calm   1.6 km/h 82% 0 mm SCT
09:20 22.2 °C 18.8 °C 1015.8 hPa Calm   1.6 km/h 81% 0 mm SCT
09:30 22.6 °C 18.9 °C 1015.5 hPa Calm   1.6 km/h 80% 0 mm SCT
09:40 23.1 °C 19 °C 1015.8 hPa Calm   3.2 km/h 78% 0 mm SCT
09:50 23.3 °C 19.3 °C 1016.1 hPa Calm   1.6 km/h 78% 0 mm SCT
10:00 23.7 °C 19.2 °C 1016.1 hPa Calm   3.2 km/h 76% 0 mm SCT
10:10 24.4 °C 19.7 °C 1016.1 hPa Calm   3.2 km/h 75% 0 mm SCT
10:20 25.2 °C 19.3 °C 1016.1 hPa Calm   1.6 km/h 70% 0 mm SCT
10:30 24.9 °C 19.1 °C 1016.1 hPa Calm   3.2 km/h 70% 0 mm SCT
10:40 25.4 °C 19.5 °C 1016.5 hPa Calm   4.8 km/h 70% 0 mm SCT
10:50 25.7 °C 19.3 °C 1016.8 hPa SSW 1.6 km/h 8 km/h 68% 0 mm SCT
11:00 25.8 °C 19.7 °C 1016.8 hPa Calm   8 km/h 69% 0 mm SCT
11:10 25.7 °C 19.1 °C 1016.8 hPa South 3.2 km/h 8 km/h 67% 0 mm SCT
11:20 25.6 °C 19.2 °C 1016.8 hPa Calm   8 km/h 68% 0 mm SCT
11:30 25.8 °C 19.4 °C 1016.8 hPa Calm   1.6 km/h 68% 0 mm SCT
11:40 25.8 °C 19.2 °C 1017.2 hPa Calm   4.8 km/h 67% 0 mm SCT
11:50 26.1 °C 19.4 °C 1016.8 hPa Calm   3.2 km/h 67% 0 mm SCT
12:00 26.2 °C 19.1 °C 1016.8 hPa Calm   3.2 km/h 65% 0 mm SCT
12:10 26.3 °C 18.7 °C 1017.2 hPa WNW 1.6 km/h 3.2 km/h 63% 0 mm SCT
12:20 26.7 °C 20.1 °C 1017.2 hPa Calm   1.6 km/h 67% 0 mm SCT
12:30 26.8 °C 19.7 °C 1016.8 hPa Calm   3.2 km/h 65% 0 mm SCT
12:40 26.7 °C 19.3 °C 1016.8 hPa NW 1.6 km/h 8 km/h 64% 0 mm SCT
12:50 26.8 °C 19.9 °C 1016.8 hPa Calm   1.6 km/h 66% 0 mm SCT
13:00 27 °C 19.6 °C 1016.8 hPa Calm   3.2 km/h 64% 0 mm SCT
13:10 27.3 °C 20.1 °C 1016.8 hPa Calm   3.2 km/h 65% 0 mm SCT
13:20 27.4 °C 20 °C 1016.8 hPa Calm   4.8 km/h 64% 0 mm SCT
13:30 27.1 °C 20 °C 1016.8 hPa Calm   4.8 km/h 65% 0 mm SCT
13:40 27.2 °C 20.3 °C 1016.8 hPa Calm   8 km/h 66% 0 mm SCT
13:50 26.8 °C 19.7 °C 1016.8 hPa WSW 1.6 km/h 8 km/h 65% 0 mm SCT
14:00 26.1 °C 19.9 °C 1016.8 hPa Calm   1.6 km/h 69% 0 mm SCT
14:10 25.8 °C 19.9 °C 1016.5 hPa Calm   3.2 km/h 70% 0 mm SCT
14:20 25.6 °C 20.2 °C 1016.5 hPa Calm   1.6 km/h 72% 0 mm SCT
14:30 25.7 °C 20.4 °C 1016.5 hPa Calm   3.2 km/h 73% 0 mm SCT
14:40 26.1 °C 20.4 °C 1016.1 hPa Calm   3.2 km/h 71% 0 mm SCT
14:50 26.2 °C 20.3 °C 1016.5 hPa West 1.6 km/h 3.2 km/h 70% 0 mm SCT
15:00 25.9 °C 20.2 °C 1016.5 hPa Calm   3.2 km/h 71% 0 mm SCT
15:10 25.6 °C 20.3 °C 1016.1 hPa Calm     73% 0 mm SCT
15:30 25.7 °C 20.7 °C 1016.1 hPa Calm   1.6 km/h 74% 0 mm SCT
15:40 25.7 °C 20.4 °C 1016.1 hPa Calm   1.6 km/h 73% 0 mm SCT
15:50 25.4 °C 20 °C 1016.1 hPa Calm   1.6 km/h 72% 0 mm SCT
16:00 25.1 °C 20.1 °C 1016.1 hPa Calm   1.6 km/h 74% 0 mm SCT
16:10 24.6 °C 20.5 °C 1016.5 hPa Calm     78% 0 mm SCT
16:20 23.2 °C 20 °C 1016.8 hPa Calm   3.2 km/h 82% 3.3 mm RA
16:30 22 °C 19.6 °C 1017.5 hPa Calm   3.2 km/h 86% 5.08 mm RA
16:40 21.3 °C 19.2 °C 1017.5 hPa Calm   3.2 km/h 88% 2.03 mm RA
16:50 21 °C 19.1 °C 1017.5 hPa Calm   1.6 km/h 89% 1.27 mm RA
17:00 20.9 °C 19.2 °C 1016.1 hPa Calm   1.6 km/h 90% 1.02 mm SCT
17:10 20.9 °C 19.4 °C 1015.5 hPa Calm     91% 0.51 mm SCT
17:20 20.9 °C 19.3 °C 1015.5 hPa Calm   1.6 km/h 91% 0 mm SCT
17:30 21 °C 19.7 °C 1015.5 hPa Calm   1.6 km/h 92% 0 mm SCT
17:40 21.1 °C 19.8 °C 1015.5 hPa Calm   1.6 km/h 92% 0 mm SCT
17:50 21.1 °C 19.8 °C 1015.8 hPa Calm   1.6 km/h 92% 0 mm SCT
18:00 21.3 °C 19.7 °C 1015.8 hPa Calm   1.6 km/h 91% 0 mm SCT
18:10 21.4 °C 19.8 °C 1015.8 hPa Calm     91% 0 mm SCT
18:20 21.4 °C 19.9 °C 1015.8 hPa Calm     91% 0 mm SCT
18:30 21.4 °C 19.7 °C 1015.8 hPa Calm     90% 0 mm SCT
18:40 21.4 °C 19.7 °C 1015.8 hPa Calm     90% 0 mm SCT
18:50 21.4 °C 19.7 °C 1015.8 hPa Calm     90% 0 mm SCT
19:00 21.6 °C 20 °C 1015.8 hPa Calm     91% 0 mm SCT
19:10 21.6 °C 20.1 °C 1015.8 hPa Calm     91% 0 mm SCT
19:20 21.6 °C 20.1 °C 1015.8 hPa Calm     91% 0 mm SCT
19:30 21.6 °C 20.3 °C 1016.1 hPa Calm     92% 0 mm SCT
19:40 21.6 °C 20.3 °C 1016.1 hPa Calm     92% 0 mm SCT
19:50 21.6 °C 20.2 °C 1016.1 hPa Calm     92% 0 mm SCT
20:00 21.6 °C 20.2 °C 1016.1 hPa Calm     92% 0 mm SCT
20:10 21.5 °C 20.2 °C 1016.1 hPa Calm     92% 0 mm SCT
20:20 21.5 °C 20.2 °C 1016.5 hPa Calm     92% 0 mm SCT
20:30 21.5 °C 20.1 °C 1016.1 hPa Calm     92% 0 mm SCT
20:40 21.4 °C 20.1 °C 1016.5 hPa Calm     92% 0 mm SCT
20:50 21.3 °C 19.9 °C 1016.5 hPa Calm     92% 0 mm SCT
21:00 21.2 °C 19.9 °C 1016.5 hPa Calm     92% 0 mm SCT
21:10 21.1 °C 19.8 °C 1016.5 hPa Calm     92% 0 mm SCT
21:20 21 °C 19.7 °C 1016.8 hPa Calm     92% 0 mm SCT
21:30 20.9 °C 19.6 °C 1016.8 hPa Calm     92% 0 mm SCT
21:40 20.8 °C 19.5 °C 1017.2 hPa Calm     92% 0 mm SCT
21:50 20.8 °C 19.4 °C 1017.2 hPa Calm     92% 0 mm SCT
22:00 20.7 °C 19.3 °C 1017.2 hPa Calm     92% 0 mm SCT
22:10 20.6 °C 19.2 °C 1017.2 hPa Calm     92% 0 mm SCT
22:20 20.5 °C 19.2 °C 1017.5 hPa Calm     92% 0 mm SCT
22:30 20.5 °C 19.2 °C 1017.8 hPa Calm     92% 0 mm SCT
22:40 20.6 °C 19.4 °C 1018.2 hPa Calm     93% 0 mm SCT
22:50 20.6 °C 19.4 °C 1018.5 hPa Calm     93% 0 mm SCT
23:00 20.8 °C 19.6 °C 1018.8 hPa Calm   8 km/h 93% 0.25 mm RA
23:10 19.9 °C 18.4 °C 1018.5 hPa Calm   1.6 km/h 91% 5.08 mm RA
23:20 19.4 °C 18.1 °C 1018.2 hPa Calm   1.6 km/h 92% 1.27 mm SCT
23:30 19.3 °C 17.9 °C 1018.2 hPa Calm     92% 0 mm SCT
23:40 19.2 °C 17.8 °C 1018.5 hPa Calm     92% 0 mm SCT
23:50 19.1 °C 17.7 °C 1018.5 hPa Calm     92% 0.25 mm RA
Piedmont Bend
Compliments of Weather Underground - 4 mb